Terminal Aerodrome Forecast
Issued by NWS Dodge City, KS

Home | Current Version | Previous Version | Text Only | Print | Product List | Glossary On
Versions: 1 2 3 4 5 6 7 8 9 10 11 12 13 14 15 16 17 18 19 20 21 22 23 24 25 26 27 28 29 30 31 32 33 34 35 36 37 38 39 40
000
FTUS43 KDDC 220523
TAFDDC
TAF
KDDC 220523Z 2206/2306 01009KT P6SM OVC004
     FM220900 34010KT 4SM BR OVC008
      TEMPO 2209/2212 3SM BR BKN003
     FM221200 34010KT 5SM BR BKN006
     FM221400 02010KT P6SM SCT007=

USA.gov is the U.S. government's official web portal to all federal, state and local government web resources and services.